Location: Unspecified
(0.0000°N, 0.0000°E)
Time: 11:55:46
(UTC+00:00)

Explorer 22 - Visible Passes

Search period start: 12 December 2025 00:00
Search period end: 22 December 2025 00:00
Orbit: 866 x 1041 km, 79.7° (Epoch: 12 December)

Date Brightness Start Highest point End Pass type
(mag) Time Alt. Az. Time Alt. Az. Time Alt. Az.
12 Dec 7.5 04:42:58 10° N 04:49:33 77° W 04:56:01 10° S visible
13 Dec 9.9 03:19:06 10° NE 03:23:11 17° E 03:27:12 10° ESE visible
13 Dec 8.0 05:02:09 10° NNW 05:08:14 40° W 05:14:14 10° SSW visible
14 Dec 9.0 03:36:27 11° NNE 03:41:55 33° E 03:47:35 10° SE visible
14 Dec 8.8 05:22:09 10° NW 05:26:55 21° W 05:31:38 10° SW visible
15 Dec 7.9 03:56:15 22° N 04:00:38 62° E 04:06:57 10° SSE visible
16 Dec 7.5 04:15:58 31° NNW 04:19:20 72° W 04:25:42 10° S visible
17 Dec 9.7 02:51:21 17° ENE 02:52:57 18° E 02:57:09 10° SE visible
17 Dec 8.1 04:35:37 28° NW 04:38:00 38° W 04:43:49 10° SSW visible
18 Dec 8.8 03:10:56 34° ENE 03:11:41 35° E 03:17:23 10° SSE visible
18 Dec 8.8 04:55:11 18° WNW 04:56:40 20° W 05:01:06 10° SW visible
19 Dec 7.7 03:30:26 66° E 03:30:26 66° E 03:36:40 10° SSE visible
20 Dec 7.6 03:49:52 61° SW 03:49:52 61° SW 03:55:21 10° S visible
21 Dec 9.9 02:25:00 16° ESE 02:25:00 16° ESE 02:27:02 10° SE visible
21 Dec 8.4 04:09:15 31° WSW 04:09:15 31° WSW 04:13:24 10° SSW visible
